Flag for Japan Weather past 2 weeks in Nagasaki, Japan

Now
69 °F

Mild.


Feels Like: 69 °F
Forecast: 70 / 80 °F
Wind: 2 mph from Northeast

Location: Nagasaki

Current Time: Sep 22, 2014 at 5:12:24 AM

Latest Report: Sep 22, 2014 at 4:00 AM


Visibility: N/A

Pressure: 29.99 "Hg

Humidity: 89%

Dew point: 65 °F

Location of NagasakiLocation

Historic Weather in Nagasaki — Graph

°F

Nagasaki temperature yesterday

Maximum temperature yesterday: 72 °F (at 12:00 PM)
Minimum temperature yesterday: 66 °F (at 8:00 AM)
Average temperature yesterday: 69 °F

Past Weeks' High & Low Weather Summary

 TemperatureHumidityPressure
High89 °F (Sep 8, 3:00 PM)96% (Sep 7, 6:00 AM)30.02 "Hg (Sep 7, 6:00 AM)
Low62 °F (Sep 20, 4:00 AM)42% (Sep 16, 2:00 PM)29.62 "Hg (Sep 8, 3:00 PM)
Average75 °F70%29.86 "Hg
* Reported Sep 7 3:00 AM — Sep 22 3:00 AM, Nagasaki, Weather by CustomWeather, © 2014

Note: Actual official high and low records may vary slightly from our data, if they occured in-between our weather recording intervals... More about our weather records

Advertising

Nagasaki weather history for previous 24 hours

 ConditionsComfort  
Time TempWeatherWind HumidityBarometerVisibility
3:00 AM
Sep 22
69 °FOvercast.2 mph88%29.99 "Hg16 mi
2:00 AM69 °FMild.2 mph88%29.99 "HgN/A
1:00 AM69 °FMild.2 mph86%29.99 "HgN/A
12:00 AM70 °FMild.3 mph85%30.00 "HgN/A
11:00 PM
Sep 21
69 °FMild.2 mph85%30.00 "HgN/A
10:00 PM70 °FMild.3 mph83%29.96 "HgN/A
9:00 PM69 °FOvercast.2 mph88%29.99 "Hg16 mi
8:00 PM70 °FMild.2 mph88%30.00 "HgN/A
7:00 PM70 °FMild.2 mph88%29.98 "HgN/A
6:00 PM70 °FOvercast.2 mph88%29.97 "Hg12 mi
5:00 PM71 °FMild.1 mph85%29.96 "HgN/A
4:00 PM71 °FMild.2 mph85%29.96 "HgN/A
3:00 PM70 °FLight rain. Overcast.5 mph89%29.95 "Hg16 mi
2:00 PM71 °FMild.2 mph81%29.95 "HgN/A
1:00 PM72 °FMild.3 mph79%29.97 "HgN/A
12:00 PM72 °FOvercast.5 mph76%29.97 "Hg19 mi
11:00 AM70 °FMild.5 mph81%30.00 "HgN/A
10:00 AM69 °FMild.2 mph89%30.02 "HgN/A
9:00 AM66 °FLow clouds.2 mph91%29.99 "Hg9 mi
8:00 AM66 °FMild.2 mph93%30.00 "HgN/A
7:00 AM68 °FMild.2 mph81%29.98 "HgN/A
6:00 AM68 °FOvercast.1 mph75%29.97 "Hg19 mi
5:00 AM67 °FMild.2 mph79%29.95 "HgN/A
Weather by CustomWeather, © 2014

See weather overviewHow to use our weather pages